Regional Weather Roundup
Issued by NWS

Home | Current Version | Previous Version | Text Only | Print | Product List | Glossary Off
Versions: 1 2 3 4 5 6 7 8 9 10 11 12 13 14 15 16 17 18 19 20 21 22 23 24 25 26 27 28 29 30 31 32 33 34 35 36 37 38 39 40 41 42 43 44 45 46 47 48 49 50

000
ASUS43 KOAX 230802
RWRNE

WEATHER ROUNDUP FOR NEBRASKA
NATIONAL WEATHER SERVICE OMAHA NE
300 AM CDT TUE MAY 23 2017

NOTES: SATELLITE DATA IS BEING USED TO AUGMENT CLOUD COVER ABOVE
       12000 FEET.
       "FAIR" INDICATES FEW OR NO CLOUDS BELOW 12,000 FEET WITH NO
       SIGNIFICANT WEATHER AND/OR OBSTRUCTIONS TO VISIBILITY.

  * THESE STATIONS DO NOT REPORT WEATHER SUCH AS RAIN...SNOW OR FOG.

NEZ001>004-019>022-054>056-230900-
NEBRASKA PANHANDLE

CITY           SKY/WX    TMP DP  RH WIND       PRES   REMARKS
SCOTTSBLUFF    CLEAR     38  35  89 NW3       30.18F
ALLIANCE       CLOUDY    36  35  96 W9        30.14F WCI  29
CHADRON        CLOUDY    46  40  79 NW9       30.15S
GORDON         CLOUDY    45  40  85 W8        30.10F
KIMBALL        PTCLDY    38  36  92 W10       30.20S WCI  31
SIDNEY         MOCLDY    37  35  92 W9        30.18S WCI  30
$$

NEZ057>060-069>072-079>082-230900-
SOUTHWEST NEBRASKA

CITY           SKY/WX    TMP DP  RH WIND       PRES   REMARKS
NORTH PLATTE   PTCLDY    41  40  96 W6        30.08F
IMPERIAL       CLEAR     43  38  82 NW14      30.12F
LEXINGTON      CLEAR     46  44  93 NW9       30.05F
MCCOOK         PTCLDY    44  42  93 NW13      30.09S
OGALLALA       PTCLDY    43  40  90 NW10      30.13S
$$

NEZ005>010-023>029-035>040-094-230900-
NORTH CENTRAL NEBRASKA

CITY           SKY/WX    TMP DP  RH WIND       PRES   REMARKS
VALENTINE      CLOUDY    48  42  80 W13       30.05F
AINSWORTH      CLOUDY    47  45  93 W8        30.03F
BROKEN BOW     CLEAR     46  42  86 NW14      30.04S
O`NEILL        PTCLDY    47  41  80 NW7       30.00S
ORD            PTCLDY    45  41  86 NW7       30.00F
$$

NEZ041-046>049-061>064-073>077-083>087-230900-
SOUTH CENTRAL NEBRASKA

CITY           SKY/WX    TMP DP  RH WIND       PRES   REMARKS
GRAND ISLAND   MOCLDY    49  46  90 NW9       30.00F
AURORA         MOCLDY    49  46  86 NW6       29.99F
HASTINGS       PTCLDY    50  46  86 NW9       30.00F
HEBRON         MOCLDY    54  50  88 NW5       29.97F
HOLDREGE       CLEAR     47  46  93 NW7       30.03F
KEARNEY *      PTCLDY    48  43  81 NW8       30.02F
$$

NEZ011>018-030>034-042>045-230900-
NORTHEAST NEBRASKA

CITY           SKY/WX    TMP DP  RH WIND       PRES   REMARKS
NORFOLK        CLOUDY    48  43  82 W9        29.95F
ALBION         MOCLDY    47  43  85 NW7       29.98F
BLAIR          PTCLDY    50  46  84 NW9       29.91F
FREMONT        MOCLDY    49  45  87 W7        29.93F
TEKAMAH        CLEAR     49  44  83 NW8       29.91
WAYNE          MOCLDY    49  47  92 NW12G18   29.93F
$$

NEZ050>053-065>068-078-088>093-230900-
SOUTHEAST NEBRASKA

CITY           SKY/WX    TMP DP  RH WIND       PRES   REMARKS
LINCOLN        CLOUDY    53  46  77 NW7       29.95F
OMAHA EPPLEY   MOCLDY    51  45  79 NW9       29.90F
BEATRICE       CLOUDY    53  49  86 NW10      29.95S
FALLS CITY     CLOUDY    54  51  90 NW8       29.88S
NEBRASKA CITY  CLOUDY    53  46  77 N13       29.90S
$$

NEZ044-045-051>053-067-230900-
OMAHA AREA

CITY           SKY/WX    TMP DP  RH WIND       PRES   REMARKS
OMAHA EPPLEY   MOCLDY    51  45  79 NW9       29.90F
BLAIR          PTCLDY    50  46  84 NW9       29.91F
FREMONT        MOCLDY    49  45  87 W7        29.93F
OFFUTT AFB     CLOUDY    52  45  76 NW8       29.90S
WAHOO          FAIR      51  45  79 NW9       29.93F
$$



USA.gov is the U.S. government's official web portal to all federal, state and local government web resources and services.